Waarnemingen

Advertentie
Mijn weer
Vichy, Frankrijk (7374): temperatuur & dauwpunt: 16.10.2017 13:00:00 - 22.10.2017 13:00:00 (CEST)Vichy, Frankrijk (7374): temperatuur 5cm: 16.10.2017 13:00:00 - 22.10.2017 13:00:00 (CEST)Vichy, Frankrijk (7374): windsnelheid & windstoten: 16.10.2017 13:00:00 - 22.10.2017 13:00:00 (CEST)Vichy, Frankrijk (7374): windrichting: 16.10.2017 13:00:00 - 22.10.2017 13:00:00 (CEST)Vichy, Frankrijk (7374): luchtdruk: 16.10.2017 13:00:00 - 22.10.2017 13:00:00 (CEST)Vichy, Frankrijk (7374): zicht: 16.10.2017 13:00:00 - 22.10.2017 13:00:00 (CEST)Vichy, Frankrijk (7374): Zonneschijnduur: 16.10.2017 13:00:00 - 22.10.2017 13:00:00 (CEST)Vichy, Frankrijk (7374): neerslag: 16.10.2017 13:00:00 - 22.10.2017 13:00:00 (CEST)
Datum & Tijd tt [°C] td [°C] tt 5cm [°C] ff [km/u] ff [kn] fx [km/u] fx [kn] dd ppp [hPa] vv [km] sd [min] rr [mm]
22.10.2017 13:00:00 12,6 5,5 12,6 18 10 39 21 W 1023,7 20 23 0,0
22.10.2017 12:00:00 12,1 6,2 11,6 18 10 34 18 W 1023,8 20 25 0,0
22.10.2017 11:00:00 12,0 7,1 10,7 17 9 34 18 WZW 1024,0 20 30 0,0
22.10.2017 10:00:00 9,8 6,9 4,4 4 2 11 6 Z 1024,4 20 45 0,0
22.10.2017 09:00:00 6,7 5,0 3,4 5 3 11 6 ZZO 1024,5 20 5 0,0
22.10.2017 08:00:00 6,7 4,9 3,4 6 3 14 7 Z 1023,7 20 0 0,0
22.10.2017 07:00:00 7,0 5,6 2,3 6 3 11 6 Z 1023,7 20 0 0,0
22.10.2017 06:00:00 6,2 5,5 1,6 5 3 10 5 Z 1023,5 20 0 0,0
22.10.2017 05:00:00 8,7 6,3 4,8 9 5 15 8 ZZW 1023,3 20 0 0,0
22.10.2017 04:00:00 7,4 7,0 3,4 7 4 14 7 Z 1023,7 20 0 0,0
22.10.2017 03:00:00 7,0 6,1 3,6 5 3 11 6 ZZW 1024,2 20 0 0,0
22.10.2017 02:00:00 6,6 5,9 2,8 5 3 9 5 ZZW 1024,2 19 0 0,0
22.10.2017 01:00:00 8,9 7,0 5,1 0 0 16 9 N 1023,6 20 0 0,0
22.10.2017 00:00:00 10,6 7,7 9,0 11 6 49 26 ZW 1023,0 20 0 0,6
21.10.2017 23:00:00 12,7 8,0 10,4 10 5 22 12 ZZW 1022,6 20 0 0,0
21.10.2017 22:00:00 12,9 7,8 10,1 10 6 18 10 ZZW 1022,1 20 0 0,0
21.10.2017 21:00:00 13,1 8,0 10,5 10 6 34 19 ZZW 1021,7 20 0 0,0
21.10.2017 20:00:00 12,4 8,3 10,4 9 5 17 9 ZZW 1021,4 20 0 0,0
21.10.2017 19:00:00 12,5 8,0 10,6 9 5 19 10 Z 1021,0 20 0 0,0
21.10.2017 18:00:00 12,4 9,9 11,3 9 5 20 11 ZZO 1020,8 20 0 0,4
21.10.2017 17:00:00 12,4 9,9 11,3 5 3 13 7 ZO 1020,8 10 0 0,8
21.10.2017 16:00:00 13,5 8,8 11,6 6 3 22 12 ZZO 1020,1 20 0 0,0
21.10.2017 15:00:00 14,3 8,3 12,6 12 7 32 17 W 1019,5 20 0 0,0
21.10.2017 14:00:00 14,4 13,1 13,8 4 2 43 23 ZW 1019,5 20 0 0,8
21.10.2017 13:00:00 18,3 12,5 17,4 17 9 32 18 ZW 1018,7 20 0 0,0
21.10.2017 12:00:00 18,0 12,0 16,6 11 6 22 12 ZZW 1018,6 20 2 0,0
21.10.2017 11:00:00 15,7 11,9 12,9 2 1 8 5 ZO 1018,4 20 9 0,0
21.10.2017 10:00:00 13,6 11,3 10,0 8 4 20 11 ZZW 1018,5 20 12 0,0
21.10.2017 09:00:00 10,8 10,2 8,3 5 3 10 5 ZZW 1018,4 20 13 0,0
21.10.2017 08:00:00 10,7 10,7 6,1 6 3 10 5 Z 1017,7 19 0 0,0
21.10.2017 07:00:00 8,3 8,3 6,0 6 3 8 4 ZZW 1018,1 11 0 0,0
21.10.2017 06:00:00 8,3 8,3 5,6 2 1 4 2 WNW 1017,9 8 0 0,0
21.10.2017 05:00:00 8,4 8,4 5,9 0 0 6 4 N 1018,1 10 0 0,0
21.10.2017 04:00:00 8,7 8,6 6,1 3 1 9 5 ZZO 1018,1 12 0 0,0
21.10.2017 03:00:00 9,1 9,1 5,9 8 4 12 6 ZZW 1018,2 15 0 0,0
21.10.2017 02:00:00 8,8 8,7 6,0 3 1 6 3 Z 1018,5 14 0 0,0
21.10.2017 01:00:00 9,6 9,3 6,7 0 0 7 4 N 1018,5 13 0 0,0
21.10.2017 00:00:00 10,5 10,0 7,1 0 0 5 3 N 1018,3 14 0 0,0
20.10.2017 23:00:00 11,6 10,8 9,0 3 2 5 3 ZZW 1018,2 20 0 0,0
20.10.2017 22:00:00 13,0 11,7 10,8 0 0 0 0 N 1017,7 20 0 0,0
20.10.2017 21:00:00 13,6 12,2 11,8 0 0 2 1 N 1017,5 20 0 0,0
20.10.2017 20:00:00 14,5 12,2 13,0 0 0 4 2 N 1017,4 20 0 0,0
20.10.2017 19:00:00 16,1 12,6 14,5 2 1 9 5 ONO 1017,0 20 0 0,0
20.10.2017 18:00:00 16,8 12,9 17,2 4 2 11 6 NO 1016,9 20 0 0,0
20.10.2017 17:00:00 17,3 12,8 17,4 6 3 16 9 NO 1016,8 20 1 0,0
20.10.2017 16:00:00 17,0 12,7 17,5 9 5 15 8 N 1017,1 20 0 0,0
20.10.2017 15:00:00 16,9 12,6 17,5 8 4 19 10 NNO 1016,9 20 0 0,0
20.10.2017 14:00:00 16,1 12,5 17,3 12 7 21 11 N 1017,1 20 0 0,0
20.10.2017 13:00:00 19,7 12,5 20,5 4 2 12 6 WZW 1017,0 20 0 0,0
20.10.2017 12:00:00 18,9 12,6 19,1 5 3 12 7 ZZO 1017,0 20 0 0,0
20.10.2017 11:00:00 18,3 11,6 17,8 3 2 8 5 ZZO 1016,6 20 1 0,0
20.10.2017 10:00:00 16,0 11,8 14,1 0 0 6 3 N 1015,9 20 0 0,0
20.10.2017 09:00:00 13,9 10,5 10,7 2 1 4 2 O 1015,4 20 6 0,0
20.10.2017 08:00:00 13,2 9,6 10,5 3 1 6 4 OZO 1014,6 20 0 0,0
20.10.2017 07:00:00 13,6 9,2 11,0 3 2 10 6 ZZO 1014,2 20 0 0,0
20.10.2017 06:00:00 13,2 9,4 11,0 4 2 10 5 ZO 1014,3 20 0 0,0
20.10.2017 05:00:00 14,0 9,2 10,6 10 5 16 9 W 1014,3 20 0 0,0
20.10.2017 04:00:00 15,5 9,2 12,2 6 3 20 11 Z 1013,2 20 0 0,0
20.10.2017 03:00:00 14,4 9,2 12,5 11 6 26 14 ZZO 1013,1 20 0 0,0
20.10.2017 02:00:00 14,0 9,2 10,3 9 5 16 9 ZO 1012,8 20 0 0,0
20.10.2017 01:00:00 14,5 9,1 11,0 4 2 18 10 ZZO 1012,7 20 0 0,0
20.10.2017 00:00:00 16,6 9,0 12,4 7 4 17 9 Z 1012,1 20 0 0,0
19.10.2017 23:00:00 15,1 9,2 11,0 7 4 14 8 ZZO 1012,1 20 0 0,0
19.10.2017 22:00:00 14,5 9,3 10,6 3 1 9 5 ZO 1012,4 20 0 0,0
19.10.2017 21:00:00 14,8 9,8 11,7 0 0 6 4 N 1012,3 20 0 0,0
19.10.2017 20:00:00 17,2 9,6 13,5 2 1 8 4 ZO 1011,7 20 0 0,0
19.10.2017 19:00:00 20,0 9,8 16,6 3 2 16 8 ZZO 1010,6 20 0 0,0
19.10.2017 18:00:00 22,0 9,8 21,4 7 4 23 13 Z 1009,9 20 10 0,0
19.10.2017 17:00:00 23,1 9,8 23,8 6 4 27 14 Z 1009,5 20 34 0,0
19.10.2017 16:00:00 23,0 9,7 23,6 6 4 24 13 ZZO 1009,5 20 45 0,0
19.10.2017 15:00:00 24,2 10,8 23,4 14 7 32 17 Z 1009,6 20 26 0,0
19.10.2017 14:00:00 22,9 10,7 26,2 8 5 29 16 ZZW 1010,1 20 60 0,0
19.10.2017 13:00:00 21,7 11,7 23,5 10 5 27 14 Z 1011,1 19 47 0,0
19.10.2017 12:00:00 21,6 11,0 21,9 10 5 25 13 Z 1010,9 19 33 0,0
19.10.2017 11:00:00 19,6 10,6 17,6 7 4 23 12 ZZO 1011,3 20 19 0,0
19.10.2017 10:00:00 17,2 10,3 12,7 8 5 23 12 Z 1011,7 20 0 0,0
19.10.2017 09:00:00 13,5 10,7 10,6 4 2 7 4 NNO 1011,8 20 0 0,0
19.10.2017 08:00:00 15,0 10,8 11,3 3 2 8 4 NO 1011,1 20 0 0,0
19.10.2017 07:00:00 17,3 11,1 15,2 4 2 19 10 Z 1010,7 20 0 0,0
19.10.2017 06:00:00 17,8 11,1 15,1 8 4 19 10 ZZO 1009,9 20 0 0,0
19.10.2017 05:00:00 18,5 11,3 16,6 8 5 21 11 Z 1009,8 20 0 0,0
19.10.2017 04:00:00 18,7 12,0 17,1 7 4 19 10 Z 1009,9 20 0 0,0
19.10.2017 03:00:00 18,1 12,3 13,3 7 4 24 13 ZZO 1010,6 20 0 0,0
19.10.2017 02:00:00 15,5 11,9 12,6 6 3 11 6 NNO 1010,8 20 0 0,0
19.10.2017 01:00:00 14,3 11,3 11,5 0 0 5 3 N 1011,1 20 0 0,0
19.10.2017 00:00:00 17,0 11,3 13,3 0 0 13 7 N 1011,4 20 0 0,0
18.10.2017 23:00:00 17,3 11,3 14,9 6 3 22 12 ZZO 1011,6 20 0 0,0
18.10.2017 22:00:00 18,2 11,5 15,3 10 5 24 13 ZZO 1011,4 20 0 0,0
18.10.2017 21:00:00 17,2 11,7 12,3 6 3 13 7 Z 1011,3 20 0 0,0
18.10.2017 20:00:00 16,8 11,3 12,3 2 1 10 5 Z 1011,3 20 0 0,0
18.10.2017 19:00:00 19,7 12,0 17,5 4 2 29 16 ZO 1010,6 20 13 0,0
18.10.2017 18:00:00 21,9 11,9 21,4 9 5 27 14 ZZO 1010,8 20 13 0,0
18.10.2017 17:00:00 22,4 11,8 22,8 9 5 29 16 ZZO 1010,9 20 40 0,0
18.10.2017 16:00:00 24,0 12,0 25,7 12 6 27 15 ZZO 1010,8 20 60 0,0
18.10.2017 15:00:00 24,4 11,0 27,4 12 7 26 14 ZZO 1011,2 20 60 0,0
18.10.2017 14:00:00 23,7 11,7 26,4 10 5 27 15 Z 1012,0 20 60 0,0
18.10.2017 13:00:00 22,9 11,9 26,7 11 6 29 16 ZZO 1012,9 20 60 0,0
18.10.2017 12:00:00 21,6 11,9 24,1 11 6 29 16 Z 1013,6 20 60 0,0
18.10.2017 11:00:00 17,4 11,0 12,8 3 1 8 4 N 1014,5 19 60 0,0
18.10.2017 10:00:00 13,3 9,0 11,4 5 3 11 6 N 1015,4 20 60 0,0
18.10.2017 09:00:00 10,5 7,7 6,7 8 4 10 6 N 1015,4 18 32 0,0
18.10.2017 08:00:00 11,8 8,5 6,0 4 2 8 5 Z 1015,3 20 0 0,0
18.10.2017 07:00:00 14,3 8,5 9,2 2 1 16 9 ZZO 1015,2 20 0 0,0
18.10.2017 06:00:00 15,3 8,5 12,4 8 4 18 10 Z 1015,5 20 0 0,0
18.10.2017 05:00:00 15,9 8,1 13,2 7 4 24 13 Z 1015,7 20 0 0,0
18.10.2017 04:00:00 15,8 8,0 13,7 10 5 26 14 Z 1016,0 20 0 0,0
18.10.2017 03:00:00 15,9 7,4 13,6 12 7 29 16 Z 1016,4 20 0 0,0
18.10.2017 02:00:00 16,1 6,5 14,1 9 5 26 14 Z 1016,8 20 0 0,0
18.10.2017 01:00:00 16,7 5,6 13,8 11 6 31 17 Z 1016,6 20 0 0,0
18.10.2017 00:00:00 16,8 5,1 14,1 13 7 27 14 Z 1017,1 20 0 0,0
17.10.2017 23:00:00 18,1 2,0 15,5 10 5 25 14 Z 1016,9 20 0 0,0
17.10.2017 22:00:00 19,2 1,6 12,6 11 6 25 14 ZZW 1016,7 20 0 0,0
17.10.2017 21:00:00 18,1 2,8 9,5 6 3 15 8 Z 1016,7 20 0 0,0
17.10.2017 20:00:00 18,1 3,5 10,7 5 3 15 8 ZZO 1016,5 20 0 0,0
17.10.2017 19:00:00 21,6 3,7 17,0 5 3 23 12 ZZO 1015,6 20 16 0,0
17.10.2017 18:00:00 25,7 4,2 25,8 9 5 22 12 ZZO 1015,1 20 60 0,0
17.10.2017 17:00:00 26,9 6,3 30,1 3 2 11 6 Z 1015,4 20 60 0,0
17.10.2017 16:00:00 26,6 5,5 29,6 5 3 16 9 ZZO 1016,1 20 60 0,0
17.10.2017 15:00:00 25,7 5,3 29,1 8 4 18 10 Z 1017,0 20 60 0,0
17.10.2017 14:00:00 24,1 5,9 26,5 6 3 14 8 ZZO 1018,5 20 60 0,0
17.10.2017 13:00:00 21,2 7,8 24,2 5 3 13 7 Z 1020,0 20 60 0,0
17.10.2017 12:00:00 18,7 7,2 21,0 5 3 12 7 ZZO 1021,3 20 60 0,0
17.10.2017 11:00:00 16,0 9,2 11,3 7 4 14 8 ZZO 1022,4 20 60 0,0
17.10.2017 10:00:00 12,5 9,0 9,1 4 2 10 5 Z 1023,2 20 60 0,0
17.10.2017 09:00:00 9,9 8,3 4,7 3 2 11 6 ZZW 1023,8 20 23 0,0
17.10.2017 08:00:00 7,3 6,9 4,0 6 3 9 5 ZZW 1024,0 14 0 0,0
17.10.2017 07:00:00 7,6 7,0 5,1 4 2 9 5 Z 1024,1 13 0 0,0
17.10.2017 06:00:00 8,0 7,6 4,8 2 1 7 4 ZZW 1024,3 14 0 0,0
17.10.2017 05:00:00 9,2 8,4 6,5 4 2 10 5 ZZW 1024,5 18 0 0,0
17.10.2017 04:00:00 10,3 9,7 6,9 3 2 9 5 ZZW 1024,8 20 0 0,0
17.10.2017 03:00:00 10,6 10,0 7,4 4 2 8 5 ZW 1025,1 20 0 0,0
17.10.2017 02:00:00 10,4 9,3 7,5 3 2 9 5 NNW 1025,1 20 0 0,0
17.10.2017 01:00:00 10,0 8,9 6,8 0 0 5 3 N 1025,0 20 0 0,0
17.10.2017 00:00:00 10,8 9,2 7,7 0 0 4 2 N 1025,0 20 0 0,0
16.10.2017 23:00:00 11,8 9,7 8,8 2 1 10 5 ZZO 1024,6 20 0 0,0
16.10.2017 22:00:00 12,8 10,3 9,3 3 2 6 3 Z 1024,0 20 0 0,0
16.10.2017 21:00:00 14,0 11,2 10,1 3 2 5 3 Z 1023,5 20 0 0,0
16.10.2017 20:00:00 16,1 11,0 11,0 2 1 6 4 ZZO 1022,8 20 0 0,0
16.10.2017 19:00:00 18,8 12,1 14,5 4 2 7 4 ZZW 1022,0 20 16 0,0
16.10.2017 18:00:00 29,4 11,9 28,2 3 1 10 6 Z 1020,7 20 60 0,0
16.10.2017 17:00:00 28,7 8,9 31,6 6 3 15 8 Z 1020,6 20 60 0,0
16.10.2017 16:00:00 28,6 7,8 31,6 5 3 19 11 Z 1020,9 20 60 0,0
16.10.2017 15:00:00 27,5 8,4 30,5 8 4 23 12 ZZO 1021,3 20 60 0,0
16.10.2017 14:00:00 26,4 7,9 29,2 10 5 26 14 ZZO 1021,8 20 60 0,0
16.10.2017 13:00:00 25,0 8,0 27,9 6 3 26 14 Z 1022,6 20 60 0,0

tt = temperatuur
td = dauwpunt
tt 5cm = temperatuur 5cm
ff = windsnelheid
fx = windstoten
dd = windrichting
ppp = luchtdruk
vv = zicht
sd = Zonneschijnduur
rr = neerslag

Weerstations in de omgeving